[[{"header":{"parameterUnit":"m.s-1","parameterCategory":2,"la1":30.2991,"la2":30.254,"lo1":-89.0895,"lo2":-89.0444,"dy":0.0017,"dx":0.0017,"nx":28,"ny":28,"refTime":"2024-02-07T03:00:00:Z","depth":"0","parameterNumber":2,"parameterNumberName":"U-component_of_CURRENTS"},"data":[0,0,0,0,0,0,0,0,0,0,0,0,0,0,0,0,0,0,0,0,0,0,0,0,0,0,0,0,0,0,0,0,0,0,0,0,0,0,0,0,0,0,0,0,0,0,0,0,0,0,0,0,0,0,0,0,0,0,-0.2467,-0.2468,0,-0.2536,-0.2537,-0.2537,-0.2551,-0.2551,-0.2551,-0.255,-0.258,-0.2581,-0.2582,0,0,0,0,0,0,0,0,0,0,0,0,0,-0.233,-0.2332,-0.2467,-0.2469,-0.247,-0.2536,-0.2537,-0.2537,-0.2551,-0.2551,-0.2551,-0.255,-0.2579,-0.258,-0.2582,0,0,0,0,0,0,0,0,0,0,0,0,0,-0.239,-0.2333,-0.2467,-0.2487,-0.249,-0.2536,-0.2537,-0.2538,-0.2551,-0.2551,-0.255,-0.255,-0.2579,-0.258,-0.2582,-0.2597,0,0,-0.2586,-0.2587,0,0,0,0,0,0,0,0,-0.2387,-0.2395,-0.2483,-0.2486,-0.2489,-0.2538,-0.2499,-0.2557,-0.2551,-0.2524,-0.255,-0.255,-0.2565,-0.2567,-0.2576,-0.2598,-0.2599,-0.2586,-0.2587,-0.2588,-0.2588,0,0,0,0,0,0,0,-0.2382,-0.2392,-0.2491,-0.2484,-0.2488,-0.2487,-0.2495,-0.251,-0.2541,-0.2526,-0.2528,-0.2542,-0.2565,-0.2575,-0.2577,-0.26,-0.2586,-0.2588,-0.2588,-0.2589,-0.2531,-0.2529,0,0,0,0,0,0,-0.2383,-0.2388,-0.2489,-0.2493,-0.244,-0.249,-0.2499,-0.252,-0.2542,-0.2547,-0.2542,-0.2543,-0.2572,-0.2575,-0.2578,-0.2565,-0.2588,-0.2589,-0.259,-0.2534,-0.2531,-0.2528,0,0,0,0,0,0,-0.238,-0.2392,-0.2486,-0.2444,-0.2457,-0.2493,-0.2516,-0.2521,-0.2533,-0.2556,-0.2558,-0.255,-0.2572,-0.2576,-0.2567,-0.2567,-0.259,-0.2591,-0.2536,-0.2533,-0.2529,-0.2559,0,0,0,0,0,0,-0.2376,-0.239,-0.2399,-0.2445,-0.2459,-0.2511,-0.2517,-0.2523,-0.2544,-0.2545,-0.2563,-0.2565,-0.2572,-0.2564,-0.2568,-0.2569,-0.2592,-0.2539,-0.2535,-0.2531,-0.2561,-0.2556,-0.2553,0,0,0,0,0,-0.2371,-0.2391,-0.2399,-0.2411,-0.2472,-0.2511,-0.2518,-0.254,-0.2544,-0.2549,-0.2542,-0.2565,-0.2537,-0.2564,-0.2569,-0.2571,-0.2542,-0.2536,-0.2531,-0.2562,-0.2557,-0.2553,0,0,0,0,0,0,-0.2341,-0.2396,-0.2405,-0.2442,-0.2471,-0.2515,-0.2525,-0.2542,-0.2544,-0.254,-0.2552,-0.2553,-0.254,-0.2537,-0.2566,-0.2529,-0.2536,-0.2532,-0.2558,-0.2554,-0.255,-0.2543,-0.2593,0,0,0,0,0,-0.2338,-0.2362,-0.2411,-0.2436,-0.2452,-0.2487,-0.2504,-0.2522,-0.2536,-0.2539,-0.2546,-0.2535,-0.2522,-0.2524,-0.2512,-0.2511,-0.2493,-0.2502,-0.2498,-0.2495,-0.2486,-0.2456,-0.245,-0.251,-0.251,-0.2511,0,0,-0.2332,-0.2366,-0.2379,-0.243,-0.2453,-0.2476,-0.2495,-0.2525,-0.2532,-0.2541,-0.2539,-0.2529,-0.2513,-0.25,-0.2493,-0.2503,-0.2464,-0.2489,-0.2487,-0.2479,-0.245,-0.2445,-0.244,-0.2507,-0.2507,-0.2508,0,0,-0.2333,-0.2363,-0.2381,-0.2407,-0.2448,-0.2469,-0.2478,-0.2517,-0.252,-0.2523,-0.2513,-0.2493,-0.2495,-0.2475,-0.2466,-0.2429,-0.2442,-0.2425,-0.2418,-0.239,-0.2386,-0.2382,-0.2349,-0.2342,-0.2429,-0.2429,-0.2429,0,-0.2322,-0.2356,-0.239,-0.2414,-0.2432,-0.2465,-0.2483,-0.2494,-0.2518,-0.2515,-0.2518,-0.2486,-0.2477,-0.2452,-0.2429,-0.2426,-0.2411,-0.2453,-0.239,-0.2386,-0.2382,-0.2349,-0.2341,-0.243,-0.243,-0.243,-0.243,0,-0.2338,-0.2361,-0.2375,-0.2411,-0.2431,-0.2454,-0.248,-0.2488,-0.2496,-0.2505,-0.2483,-0.2464,-0.2442,-0.2434,-0.2426,-0.2387,-0.2386,-0.2393,-0.2418,-0.2379,-0.2344,-0.2336,-0.2431,-0.2431,-0.2431,-0.2431,0,0,-0.2315,-0.2374,-0.2373,-0.2385,-0.2432,-0.2448,-0.246,-0.2475,-0.2475,-0.248,-0.2467,-0.2435,-0.2429,-0.2412,-0.24,-0.2375,-0.233,-0.2373,-0.2372,-0.2368,-0.2267,-0.2215,-0.2201,-0.2342,-0.2341,-0.2339,-0.2256,0,-0.231,-0.2343,-0.2376,-0.2392,-0.241,-0.2441,-0.245,-0.2464,-0.2468,-0.246,-0.2441,-0.2421,-0.2421,-0.2408,-0.2383,-0.2343,-0.2308,-0.2351,-0.228,-0.2277,-0.226,-0.2189,-0.2117,-0.2032,-0.2247,-0.2246,-0.2245,0,-0.2305,-0.2329,-0.2348,-0.2383,-0.2392,-0.2404,-0.2416,-0.2427,-0.243,-0.2434,-0.2422,-0.2413,-0.2372,-0.2372,-0.2301,-0.2335,-0.229,-0.2262,-0.2259,-0.2194,-0.2209,-0.2102,-0.2009,-0.1985,-0.2232,-0.2233,-0.2234,0,-0.2256,-0.2301,-0.231,-0.2324,-0.2373,-0.2377,-0.2393,-0.2411,-0.2418,-0.2406,-0.2409,-0.2378,-0.2354,-0.2307,-0.2255,-0.2276,-0.2173,-0.2196,-0.2104,-0.2101,-0.2012,-0.2002,-0.1908,-0.2122,-0.2122,-0.2122,-0.2123,0,-0.2234,-0.2237,-0.2286,-0.229,-0.2299,-0.2339,-0.2342,-0.2359,-0.2376,-0.2365,-0.2383,-0.2362,-0.2338,-0.2289,-0.224,-0.214,-0.2159,-0.2076,-0.2065,-0.2016,-0.2009,-0.1963,-0.198,-0.2119,-0.212,-0.2121,-0.2121,0,-0.2175,-0.221,-0.2225,-0.2269,-0.2278,-0.2278,-0.2321,-0.2317,-0.2351,-0.2332,-0.2328,-0.234,-0.2273,-0.2239,-0.2151,-0.2111,-0.1979,-0.1983,-0.1924,-0.1907,-0.1801,-0.1823,-0.1693,-0.1647,-0.1861,-0.1859,-0.1857,0,-0.2146,-0.2149,-0.2194,-0.2193,-0.2209,-0.2225,-0.2231,-0.2287,-0.2281,-0.2304,-0.2276,-0.2247,-0.2193,-0.2073,-0.1987,-0.188,-0.1881,-0.1762,-0.1775,-0.1755,-0.1773,-0.1788,-0.1762,-0.1668,-0.1664,-0.1662,-0.166,0,-0.2081,-0.2101,-0.2108,-0.2115,-0.2119,-0.2139,-0.2147,-0.2153,-0.2193,-0.2195,-0.2162,-0.213,-0.2035,-0.1899,-0.1792,-0.1726,-0.1715,-0.1706,-0.1695,-0.1604,-0.1603,-0.1568,-0.1773,-0.1638,-0.164,-0.1642,-0.1643,-0.1644,-0.2016,-0.2007,-0.2011,-0.2008,-0.2021,-0.2016,-0.1984,-0.2004,-0.1997,-0.1946,-0.1992,-0.1905,-0.1826,-0.1664,-0.1601,-0.1478,-0.1531,-0.1436,-0.1461,-0.1475,-0.1431,-0.158,-0.1435,-0.1436,-0.1437,-0.1438,-0.1438,0,-0.191,-0.1901,-0.1895,-0.1881,-0.1848,-0.1898,-0.1887,-0.1829,-0.1767,-0.1764,-0.1713,-0.1623,-0.15,-0.1445,-0.1327,-0.1256,-0.124,-0.1232,-0.1242,-0.1225,-0.1349,-0.1341,-0.1156,-0.1156,-0.1156,-0.1156,-0.1156,-0.1156,-0.1845,-0.1792,-0.1792,-0.1699,-0.1687,-0.1596,-0.1565,-0.1509,-0.1478,-0.1377,-0.1333,-0.1334,-0.1301,-0.131,-0.1197,-0.1142,-0.1119,-0.1078,-0.1102,-0.1212,-0.1234,-0.1255,-0.1249,-0.1049,-0.1049,-0.0935,-0.0934,-0.0933]},{"header":{"parameterUnit":"m.s-1","parameterCategory":2,"la1":30.2991,"la2":30.254,"lo1":-89.0895,"lo2":-89.0444,"dy":0.0017,"dx":0.0017,"nx":28,"ny":28,"refTime":"2024-02-07T03:00:00:Z","depth":"0","parameterNumber":3,"parameterNumberName":"V-component_of_CURRENTS"},"data":[0,0,0,0,0,0,0,0,0,0,0,0,0,0,0,0,0,0,0,0,0,0,0,0,0,0,0,0,0,0,0,0,0,0,0,0,0,0,0,0,0,0,0,0,0,0,0,0,0,0,0,0,0,0,0,0,0,0,-0.0403,-0.0402,0,-0.034,-0.0339,-0.0338,-0.0286,-0.0285,-0.0285,-0.0284,-0.0163,-0.016,-0.0158,0,0,0,0,0,0,0,0,0,0,0,0,0,-0.0414,-0.0415,-0.0403,-0.0402,-0.0401,-0.034,-0.0339,-0.0338,-0.0286,-0.0285,-0.0285,-0.0284,-0.0164,-0.0161,-0.0157,0,0,0,0,0,0,0,0,0,0,0,0,0,-0.0385,-0.0415,-0.0403,-0.0369,-0.0365,-0.034,-0.0339,-0.0338,-0.0286,-0.0285,-0.0285,-0.0284,-0.0165,-0.0161,-0.0157,-0.0144,0,0,-0.0144,-0.0142,0,0,0,0,0,0,0,0,-0.0387,-0.0385,-0.0374,-0.0371,-0.0367,-0.0321,-0.0299,-0.0271,-0.0286,-0.0315,-0.0284,-0.0284,-0.0212,-0.0204,-0.0193,-0.0139,-0.0133,-0.0144,-0.0141,-0.0139,-0.0138,0,0,0,0,0,0,0,-0.0389,-0.0387,-0.0376,-0.0374,-0.0369,-0.0335,-0.0331,-0.0293,-0.0266,-0.0312,-0.0309,-0.0304,-0.0209,-0.0197,-0.0189,-0.0132,-0.0144,-0.014,-0.0137,-0.0136,-0.0064,-0.0065,0,0,0,0,0,0,-0.0404,-0.0389,-0.0378,-0.0375,-0.0377,-0.0336,-0.0331,-0.0335,-0.0267,-0.0257,-0.0305,-0.0302,-0.0204,-0.0194,-0.0185,-0.0154,-0.0139,-0.0135,-0.0133,-0.0064,-0.0064,-0.0065,0,0,0,0,0,0,-0.0404,-0.0404,-0.0381,-0.0381,-0.0376,-0.0337,-0.0342,-0.0335,-0.0322,-0.0262,-0.0251,-0.03,-0.0203,-0.0191,-0.0156,-0.0149,-0.0134,-0.013,-0.0063,-0.0064,-0.0065,-0.0099,0,0,0,0,0,0,-0.0405,-0.0405,-0.0413,-0.0382,-0.0376,-0.0372,-0.0343,-0.0334,-0.0321,-0.0317,-0.0255,-0.0243,-0.0202,-0.0162,-0.0151,-0.0143,-0.0126,-0.0062,-0.0063,-0.0065,-0.0097,-0.0101,-0.0104,0,0,0,0,0,-0.0406,-0.0425,-0.0414,-0.0413,-0.039,-0.0373,-0.0367,-0.0335,-0.0322,-0.0321,-0.028,-0.0245,-0.0162,-0.0159,-0.0146,-0.0136,-0.0062,-0.0063,-0.0064,-0.0095,-0.01,-0.0104,0,0,0,0,0,0,-0.0434,-0.042,-0.0408,-0.0422,-0.0401,-0.0364,-0.0363,-0.0342,-0.031,-0.0305,-0.0248,-0.0234,-0.0203,-0.0172,-0.0171,-0.0123,-0.0108,-0.0107,-0.0136,-0.014,-0.0143,-0.0147,-0.0123,0,0,0,0,0,-0.0446,-0.0455,-0.0431,-0.044,-0.0435,-0.04,-0.039,-0.0369,-0.0338,-0.0323,-0.028,-0.0238,-0.02,-0.0173,-0.0139,-0.0109,-0.0075,-0.0097,-0.0101,-0.0104,-0.0101,-0.0053,-0.0051,-0.007,-0.007,-0.007,0,0,-0.0459,-0.0452,-0.0456,-0.0446,-0.0428,-0.0422,-0.0392,-0.0383,-0.0369,-0.0315,-0.0286,-0.025,-0.0198,-0.0165,-0.0148,-0.0135,-0.0083,-0.0106,-0.0109,-0.0104,-0.0054,-0.0052,-0.005,-0.0071,-0.0071,-0.007,0,0,-0.0489,-0.0484,-0.0501,-0.0487,-0.0468,-0.0444,-0.0445,-0.0413,-0.0391,-0.0363,-0.0321,-0.0281,-0.0228,-0.0181,-0.0152,-0.0157,-0.011,-0.0155,-0.0162,-0.0116,-0.0114,-0.0111,-0.0071,-0.0064,-0.0149,-0.0149,-0.0149,0,-0.0503,-0.052,-0.0501,-0.0509,-0.0498,-0.0458,-0.0463,-0.0436,-0.0393,-0.0372,-0.0361,-0.0275,-0.0231,-0.0175,-0.0177,-0.0161,-0.0135,-0.0147,-0.0119,-0.0116,-0.0112,-0.0072,-0.0064,-0.0151,-0.0151,-0.015,-0.015,0,-0.054,-0.055,-0.0558,-0.0551,-0.0537,-0.0536,-0.0497,-0.0476,-0.0446,-0.041,-0.036,-0.0301,-0.0246,-0.0229,-0.02,-0.0156,-0.0146,-0.0134,-0.0105,-0.0112,-0.007,-0.0061,-0.0153,-0.0153,-0.0152,-0.0152,0,0,-0.0578,-0.0584,-0.0587,-0.0589,-0.0559,-0.0552,-0.0527,-0.0489,-0.0465,-0.0419,-0.038,-0.0314,-0.028,-0.0246,-0.0202,-0.0158,-0.0112,-0.0141,-0.0138,-0.0096,-0.0016,0.0013,0.0026,-0.0097,-0.0096,-0.0095,0.0004,0,-0.0609,-0.0643,-0.0626,-0.0636,-0.0646,-0.0596,-0.0574,-0.0531,-0.0481,-0.0433,-0.0363,-0.0316,-0.0286,-0.0259,-0.021,-0.0135,-0.0091,-0.014,-0.0019,-0.0015,0.0016,0.0036,0.0053,0.0144,0.0012,0.0014,0.0015,0,-0.0648,-0.0664,-0.0694,-0.0679,-0.0677,-0.0669,-0.0618,-0.0591,-0.051,-0.047,-0.0404,-0.0349,-0.0268,-0.0252,-0.0121,-0.0157,-0.0093,-0.0038,-0.0032,0.0015,0.003,0.0131,0.0165,0.0245,0.0028,0.0027,0.0026,0,-0.069,-0.0705,-0.0731,-0.0728,-0.0707,-0.0699,-0.0677,-0.0608,-0.0577,-0.0493,-0.0456,-0.0358,-0.0299,-0.0211,-0.0093,-0.0109,0.0049,0.0045,0.0132,0.0135,0.0185,0.0189,0.0318,0.0132,0.0131,0.0131,0.0131,0,-0.0729,-0.0745,-0.0757,-0.077,-0.0785,-0.0748,-0.0733,-0.069,-0.0619,-0.0575,-0.0484,-0.0421,-0.0287,-0.0179,-0.009,0.0058,0.0056,0.0141,0.0169,0.0171,0.0174,0.0274,0.0299,0.0135,0.0134,0.0133,0.0133,0,-0.077,-0.0779,-0.0811,-0.0811,-0.0811,-0.0823,-0.0786,-0.0767,-0.0692,-0.0629,-0.0606,-0.0459,-0.0308,-0.0169,-0.0003,0.0072,0.0258,0.0247,0.024,0.0264,0.0404,0.0426,0.0583,0.0634,0.0357,0.0358,0.0359,0,-0.0795,-0.0822,-0.0855,-0.0877,-0.0881,-0.0886,-0.0883,-0.0818,-0.0783,-0.0646,-0.0615,-0.0454,-0.0319,-0.0059,0.0108,0.0286,0.0338,0.0388,0.0364,0.043,0.0474,0.0484,0.0515,0.0415,0.0417,0.0418,0.0419,0,-0.0839,-0.0857,-0.0886,-0.0938,-0.0957,-0.0966,-0.0947,-0.0926,-0.0829,-0.0752,-0.0609,-0.0491,-0.022,0.0016,0.0245,0.0337,0.0447,0.0418,0.0499,0.0546,0.0555,0.0611,0.0325,0.043,0.0429,0.0428,0.0428,0.0427,-0.0869,-0.0907,-0.095,-0.0994,-0.102,-0.1025,-0.1009,-0.0955,-0.0885,-0.0726,-0.0616,-0.0393,-0.0075,0.0267,0.0377,0.0595,0.0562,0.0641,0.0667,0.0674,0.0714,0.0448,0.0573,0.0572,0.0572,0.0572,0.0572,0,-0.0897,-0.094,-0.0993,-0.1042,-0.1073,-0.1069,-0.1033,-0.0979,-0.0876,-0.0707,-0.0541,-0.0148,0.0152,0.0426,0.0735,0.0837,0.085,0.0878,0.0897,0.0921,0.0707,0.0698,0.0841,0.0841,0.084,0.084,0.084,0.084,-0.0913,-0.0973,-0.1005,-0.1072,-0.1098,-0.1092,-0.1061,-0.0956,-0.0815,-0.0522,-0.0267,-0.0059,0.0317,0.0791,0.1054,0.1063,0.1145,0.1129,0.1182,0.1026,0.1005,0.0985,0.0985,0.1185,0.1186,0.1384,0.1386,0.1388]}],[{"header":{"parameterUnit":"m.s-1","parameterCategory":2,"la1":30.2991,"la2":30.254,"lo1":-89.0895,"lo2":-89.0444,"dy":0.0017,"dx":0.0017,"nx":28,"ny":28,"refTime":"2024-02-07T03:00:00:Z","depth":"2","parameterNumber":2,"parameterNumberName":"U-component_of_CURRENTS"},"data":[0,0,0,0,0,0,0,0,0,0,0,0,0,0,0,0,0,0,0,0,0,0,0,0,0,0,0,0,0,0,0,0,0,0,0,0,0,0,0,0,0,0,0,0,0,0,0,0,0,0,0,0,0,0,0,0,0,0,-0.2014,-0.2015,0,-0.2057,-0.2057,-0.2058,-0.2069,-0.2069,-0.2069,-0.2069,-0.2073,-0.2073,-0.2073,0,0,0,0,0,0,0,0,0,0,0,0,0,-0.193,-0.1931,-0.2014,-0.2015,-0.2016,-0.2057,-0.2057,-0.2058,-0.2069,-0.2069,-0.2069,-0.2069,-0.2073,-0.2073,-0.2073,0,0,0,0,0,0,0,0,0,0,0,0,0,-0.1967,-0.1932,-0.2014,-0.2028,-0.203,-0.2057,-0.2057,-0.2058,-0.2069,-0.2069,-0.2069,-0.2069,-0.2073,-0.2073,-0.2073,-0.2076,0,0,-0.2074,-0.2074,0,0,0,0,0,0,0,0,-0.1965,-0.1969,-0.2025,-0.2027,-0.2029,-0.206,-0.2029,-0.2063,-0.2069,-0.2052,-0.2069,-0.2069,-0.2066,-0.2067,-0.2073,-0.2076,-0.2076,-0.2074,-0.2074,-0.2074,-0.2074,0,0,0,0,0,0,0,-0.1962,-0.1968,-0.2029,-0.2026,-0.2029,-0.2028,-0.2033,-0.2035,-0.2056,-0.2053,-0.2055,-0.2063,-0.2067,-0.2072,-0.2073,-0.2076,-0.2074,-0.2074,-0.2074,-0.2074,-0.2053,-0.2052,0,0,0,0,0,0,-0.1962,-0.1965,-0.2028,-0.203,-0.1999,-0.203,-0.2035,-0.2048,-0.2057,-0.206,-0.2063,-0.2064,-0.2072,-0.2072,-0.2073,-0.2075,-0.2074,-0.2074,-0.2074,-0.2053,-0.2052,-0.2052,0,0,0,0,0,0,-0.196,-0.1968,-0.2026,-0.2,-0.2008,-0.2032,-0.2046,-0.2049,-0.2062,-0.2066,-0.2067,-0.2074,-0.2072,-0.2073,-0.2072,-0.2075,-0.2074,-0.2075,-0.2054,-0.2053,-0.2052,-0.208,0,0,0,0,0,0,-0.1958,-0.1967,-0.1974,-0.2001,-0.201,-0.2042,-0.2046,-0.205,-0.2068,-0.2069,-0.2075,-0.2075,-0.2072,-0.2071,-0.2072,-0.2075,-0.2075,-0.2055,-0.2054,-0.2052,-0.208,-0.208,-0.208,0,0,0,0,0,-0.1955,-0.1968,-0.1974,-0.1981,-0.2019,-0.2043,-0.2047,-0.2062,-0.2069,-0.2073,-0.2073,-0.2075,-0.2063,-0.2072,-0.2072,-0.2076,-0.2056,-0.2054,-0.2052,-0.208,-0.208,-0.208,0,0,0,0,0,0,-0.1938,-0.1971,-0.1978,-0.2001,-0.202,-0.2046,-0.2054,-0.2067,-0.2073,-0.2073,-0.2074,-0.2074,-0.2071,-0.2065,-0.2075,-0.2061,-0.2057,-0.2055,-0.2077,-0.2077,-0.2077,-0.2066,-0.2075,0,0,0,0,0,-0.1937,-0.1952,-0.1982,-0.1999,-0.2009,-0.2033,-0.2044,-0.2058,-0.2069,-0.2073,-0.2076,-0.2071,-0.2064,-0.2065,-0.2057,-0.2059,-0.2038,-0.2056,-0.2056,-0.2056,-0.2044,-0.2021,-0.2018,-0.2046,-0.2046,-0.2046,0,0,-0.1934,-0.1955,-0.1963,-0.1995,-0.2011,-0.2027,-0.2039,-0.2061,-0.207,-0.2071,-0.2078,-0.2074,-0.2062,-0.2059,-0.2057,-0.2058,-0.2036,-0.2054,-0.2055,-0.2043,-0.2019,-0.2017,-0.2014,-0.2045,-0.2046,-0.2046,0,0,-0.1935,-0.1955,-0.1966,-0.1984,-0.2012,-0.2027,-0.2035,-0.2063,-0.2069,-0.208,-0.2074,-0.2066,-0.207,-0.2055,-0.205,-0.2042,-0.2035,-0.2046,-0.2044,-0.2023,-0.202,-0.2018,-0.199,-0.1985,-0.2049,-0.2049,-0.2049,0,-0.1929,-0.195,-0.1972,-0.1988,-0.2002,-0.2027,-0.2041,-0.2053,-0.2074,-0.2077,-0.2081,-0.2071,-0.2062,-0.205,-0.2043,-0.2043,-0.2031,-0.2052,-0.2024,-0.2022,-0.2019,-0.199,-0.1985,-0.205,-0.205,-0.205,-0.205,0,-0.1937,-0.1955,-0.1964,-0.199,-0.2006,-0.2024,-0.2046,-0.2058,-0.2072,-0.2081,-0.2078,-0.2066,-0.2057,-0.2055,-0.2049,-0.2027,-0.2024,-0.2028,-0.203,-0.2018,-0.1988,-0.1982,-0.2052,-0.2052,-0.2051,-0.2051,0,0,-0.1917,-0.1961,-0.1961,-0.1972,-0.201,-0.2021,-0.204,-0.2057,-0.2064,-0.2076,-0.2075,-0.206,-0.2059,-0.2048,-0.2042,-0.2022,-0.1991,-0.202,-0.2018,-0.2001,-0.1942,-0.1887,-0.1875,-0.2002,-0.2001,-0.2,-0.193,0,-0.1913,-0.1937,-0.1962,-0.1979,-0.1992,-0.2022,-0.2037,-0.2055,-0.2067,-0.207,-0.2062,-0.2055,-0.2056,-0.2052,-0.2034,-0.2002,-0.1975,-0.2009,-0.1947,-0.1944,-0.1905,-0.1865,-0.1752,-0.1676,-0.1924,-0.1923,-0.1922,0,-0.1905,-0.1923,-0.194,-0.1973,-0.1982,-0.1996,-0.2019,-0.2034,-0.2048,-0.2059,-0.206,-0.2057,-0.2031,-0.203,-0.1975,-0.2003,-0.1966,-0.1941,-0.1938,-0.1869,-0.1876,-0.1725,-0.1654,-0.1911,-0.1912,-0.1912,-0.1913,0,-0.1863,-0.1901,-0.1911,-0.1924,-0.1969,-0.198,-0.1999,-0.2026,-0.2038,-0.2044,-0.2053,-0.2036,-0.2023,-0.1985,-0.1941,-0.1959,-0.1873,-0.1891,-0.1803,-0.1799,-0.1677,-0.1663,-0.1831,-0.1832,-0.1832,-0.1832,-0.1832,0,-0.1841,-0.1846,-0.1893,-0.1897,-0.1912,-0.195,-0.1964,-0.1987,-0.2014,-0.201,-0.2038,-0.2026,-0.2012,-0.1973,-0.193,-0.184,-0.1864,-0.178,-0.1769,-0.1682,-0.1671,-0.1857,-0.1861,-0.1829,-0.183,-0.183,-0.1831,0,-0.1789,-0.1821,-0.1837,-0.1881,-0.1893,-0.19,-0.1949,-0.1952,-0.1994,-0.1988,-0.199,-0.2012,-0.1956,-0.193,-0.1856,-0.1817,-0.1741,-0.1702,-0.1598,-0.1575,-0.1685,-0.1691,-0.1591,-0.1589,-0.1586,-0.1584,-0.1583,0,-0.1762,-0.1765,-0.1813,-0.1814,-0.1832,-0.1856,-0.1866,-0.1927,-0.1928,-0.1963,-0.1942,-0.1925,-0.1877,-0.1773,-0.1694,-0.1599,-0.1658,-0.1446,-0.1448,-0.1657,-0.1657,-0.1666,-0.1675,-0.1298,-0.1294,-0.1291,-0.1289,0,-0.1703,-0.1725,-0.1732,-0.1744,-0.1755,-0.1776,-0.1792,-0.18,-0.1847,-0.1855,-0.1831,-0.1804,-0.1723,-0.1574,-0.1478,-0.1413,-0.1457,-0.1379,-0.1603,-0.1385,-0.1376,-0.1379,-0.1397,-0.1261,-0.1264,-0.1266,-0.1267,-0.1268,-0.1645,-0.1638,-0.1646,-0.1647,-0.1665,-0.1663,-0.1634,-0.1657,-0.1653,-0.1612,-0.1659,-0.1564,-0.1537,-0.132,-0.1231,-0.1164,-0.1265,-0.1207,-0.1218,-0.1232,-0.1219,-0.1207,-0.1057,-0.1059,-0.106,-0.1061,-0.1062,0,-0.155,-0.1543,-0.1541,-0.1531,-0.1504,-0.1556,-0.1547,-0.1489,-0.1432,-0.1429,-0.1381,-0.1209,-0.1111,-0.1083,-0.0939,-0.0908,-0.0916,-0.0868,-0.0881,-0.0909,-0.0934,-0.0907,-0.0662,-0.0661,-0.066,-0.0658,0,0,-0.1491,-0.1444,-0.1442,-0.1361,-0.1355,-0.1274,-0.1245,-0.1187,-0.1154,-0.1058,-0.1003,-0.1047,-0.1063,-0.0863,-0.0815,-0.0715,-0.0809,-0.0681,-0.1004,-0.1049,-0.1072,-0.113,-0.112,0,0,0,0,0]},{"header":{"parameterUnit":"m.s-1","parameterCategory":2,"la1":30.2991,"la2":30.254,"lo1":-89.0895,"lo2":-89.0444,"dy":0.0017,"dx":0.0017,"nx":28,"ny":28,"refTime":"2024-02-07T03:00:00:Z","depth":"2","parameterNumber":3,"parameterNumberName":"V-component_of_CURRENTS"},"data":[0,0,0,0,0,0,0,0,0,0,0,0,0,0,0,0,0,0,0,0,0,0,0,0,0,0,0,0,0,0,0,0,0,0,0,0,0,0,0,0,0,0,0,0,0,0,0,0,0,0,0,0,0,0,0,0,0,0,-0.0446,-0.0446,0,-0.0406,-0.0405,-0.0405,-0.0369,-0.0369,-0.0368,-0.0368,-0.0277,-0.0275,-0.0273,0,0,0,0,0,0,0,0,0,0,0,0,0,-0.0438,-0.0439,-0.0446,-0.0446,-0.0445,-0.0406,-0.0405,-0.0405,-0.0369,-0.0369,-0.0368,-0.0368,-0.0278,-0.0276,-0.0273,0,0,0,0,0,0,0,0,0,0,0,0,0,-0.0424,-0.0439,-0.0446,-0.0423,-0.0421,-0.0406,-0.0405,-0.0405,-0.0369,-0.0369,-0.0368,-0.0368,-0.0279,-0.0276,-0.0273,-0.0264,0,0,-0.0263,-0.0262,0,0,0,0,0,0,0,0,-0.0425,-0.0424,-0.0427,-0.0425,-0.0422,-0.0393,-0.037,-0.0355,-0.0369,-0.0388,-0.0368,-0.0367,-0.0312,-0.0306,-0.03,-0.026,-0.0256,-0.0263,-0.0261,-0.026,-0.0259,0,0,0,0,0,0,0,-0.0426,-0.0425,-0.0429,-0.0427,-0.0424,-0.0397,-0.0395,-0.0367,-0.0352,-0.0386,-0.0384,-0.0381,-0.031,-0.0303,-0.0297,-0.0255,-0.0263,-0.026,-0.0258,-0.0257,-0.0181,-0.0181,0,0,0,0,0,0,-0.0436,-0.0427,-0.0431,-0.0428,-0.0423,-0.0398,-0.0395,-0.0402,-0.0353,-0.0346,-0.0381,-0.0379,-0.0308,-0.0301,-0.0294,-0.0263,-0.026,-0.0257,-0.0255,-0.0181,-0.0181,-0.0181,0,0,0,0,0,0,-0.0436,-0.0437,-0.0432,-0.0426,-0.0424,-0.0399,-0.0406,-0.0401,-0.0394,-0.035,-0.0342,-0.0379,-0.0308,-0.0298,-0.0266,-0.026,-0.0255,-0.0253,-0.0182,-0.0181,-0.0181,-0.0213,0,0,0,0,0,0,-0.0436,-0.0438,-0.0446,-0.0428,-0.0425,-0.0428,-0.0407,-0.0401,-0.0394,-0.039,-0.0346,-0.0337,-0.0306,-0.0271,-0.0263,-0.0256,-0.025,-0.0182,-0.0182,-0.0181,-0.0213,-0.0214,-0.0216,0,0,0,0,0,-0.0436,-0.0455,-0.0447,-0.0448,-0.0438,-0.0429,-0.0425,-0.0404,-0.0394,-0.0395,-0.036,-0.0338,-0.0264,-0.0269,-0.0259,-0.0251,-0.0182,-0.0182,-0.0181,-0.0212,-0.0214,-0.0216,0,0,0,0,0,0,-0.0457,-0.0453,-0.0444,-0.046,-0.0446,-0.0423,-0.0425,-0.041,-0.0384,-0.038,-0.0337,-0.0325,-0.0296,-0.0271,-0.0277,-0.0228,-0.0219,-0.0217,-0.0245,-0.0247,-0.0249,-0.0257,-0.0248,0,0,0,0,0,-0.0466,-0.0478,-0.0464,-0.0475,-0.0473,-0.0449,-0.0443,-0.0429,-0.0405,-0.0394,-0.036,-0.0323,-0.0288,-0.0267,-0.0237,-0.021,-0.0181,-0.0198,-0.02,-0.0202,-0.0201,-0.0155,-0.0153,-0.018,-0.018,-0.018,0,0,-0.0477,-0.0476,-0.0482,-0.0479,-0.0468,-0.0467,-0.0444,-0.0441,-0.043,-0.0387,-0.0364,-0.0331,-0.0284,-0.0254,-0.0238,-0.023,-0.0179,-0.0201,-0.0203,-0.0202,-0.0155,-0.0152,-0.0149,-0.018,-0.018,-0.018,0,0,-0.0505,-0.0504,-0.0523,-0.0514,-0.0503,-0.0485,-0.0487,-0.0465,-0.0447,-0.0423,-0.0386,-0.0348,-0.0303,-0.0261,-0.0235,-0.0227,-0.0194,-0.0222,-0.0229,-0.0185,-0.0182,-0.018,-0.0142,-0.0136,-0.0218,-0.0218,-0.0218,0,-0.0516,-0.0537,-0.0525,-0.0534,-0.0527,-0.0496,-0.0504,-0.0482,-0.0448,-0.0429,-0.0421,-0.034,-0.0302,-0.0249,-0.0246,-0.023,-0.0206,-0.0226,-0.0187,-0.0184,-0.018,-0.0143,-0.0135,-0.0219,-0.0219,-0.0219,-0.0219,0,-0.0552,-0.0564,-0.0574,-0.0573,-0.0563,-0.0565,-0.0534,-0.0516,-0.049,-0.0461,-0.0413,-0.0358,-0.0307,-0.0289,-0.0264,-0.0219,-0.0211,-0.02,-0.0184,-0.018,-0.014,-0.0132,-0.0221,-0.0221,-0.022,-0.022,0,0,-0.0586,-0.0598,-0.0601,-0.0605,-0.0583,-0.058,-0.0559,-0.0528,-0.0507,-0.0465,-0.043,-0.0366,-0.0336,-0.0304,-0.0263,-0.0221,-0.0175,-0.0205,-0.0202,-0.0172,-0.0084,-0.0063,-0.0052,-0.0161,-0.016,-0.0159,-0.0067,0,-0.0616,-0.065,-0.0638,-0.0651,-0.0662,-0.062,-0.0602,-0.0565,-0.0521,-0.0479,-0.0412,-0.0368,-0.0341,-0.0314,-0.0268,-0.0197,-0.0155,-0.0201,-0.0089,-0.0086,-0.0071,-0.0042,-0.0059,0.0023,-0.0058,-0.0057,-0.0056,0,-0.0652,-0.067,-0.07,-0.0691,-0.0691,-0.0686,-0.0644,-0.0621,-0.0548,-0.0513,-0.0451,-0.0399,-0.0323,-0.0307,-0.0184,-0.0218,-0.0157,-0.0104,-0.0099,-0.0063,-0.005,0.0007,0.0041,-0.0042,-0.0043,-0.0044,-0.0045,0,-0.0689,-0.0707,-0.0733,-0.0732,-0.0719,-0.0713,-0.0696,-0.0636,-0.061,-0.0532,-0.0501,-0.0407,-0.0351,-0.0268,-0.0157,-0.0171,-0.0025,-0.0026,0.0051,0.0053,0.0071,0.0072,0.0057,0.0057,0.0057,0.0057,0.0056,0,-0.0723,-0.0741,-0.0757,-0.0769,-0.0787,-0.0757,-0.0747,-0.0711,-0.0649,-0.0611,-0.0526,-0.047,-0.034,-0.0239,-0.0155,-0.002,-0.0018,0.0059,0.0084,0.0059,0.0058,0.0025,0.002,0.006,0.0059,0.0059,0.0058,0,-0.0758,-0.0769,-0.0801,-0.0807,-0.0809,-0.0823,-0.0796,-0.0781,-0.0717,-0.0662,-0.064,-0.0505,-0.0366,-0.0235,-0.0076,-0.0008,0.0111,0.0155,0.0115,0.0133,0.0154,0.0147,0.0249,0.0251,0.0252,0.0253,0.0254,0,-0.0779,-0.0805,-0.0841,-0.0863,-0.0869,-0.0879,-0.088,-0.0827,-0.0797,-0.068,-0.0652,-0.0504,-0.0383,-0.0142,0.0013,0.0178,0.0167,0.0244,0.0218,0.0163,0.0177,0.0167,0.0158,0.023,0.023,0.0231,0.0231,0,-0.0816,-0.0835,-0.0863,-0.0915,-0.0937,-0.095,-0.0939,-0.0922,-0.084,-0.0776,-0.0652,-0.0547,-0.0301,-0.0099,0.0113,0.0195,0.0214,0.026,0.0235,0.0177,0.0151,0.0162,0.0153,0.0236,0.0236,0.0235,0.0235,0.0235,-0.0841,-0.0877,-0.0919,-0.0963,-0.0992,-0.1003,-0.0993,-0.095,-0.0893,-0.0756,-0.0659,-0.0465,-0.0283,0.0043,0.0177,0.0298,0.0286,0.0306,0.0302,0.0298,0.0273,0.025,0.0349,0.035,0.035,0.035,0.035,0,-0.0864,-0.0905,-0.0956,-0.1006,-0.1038,-0.1041,-0.1015,-0.0969,-0.0885,-0.074,-0.0597,-0.036,-0.0135,0.0052,0.0254,0.0359,0.0337,0.0366,0.0317,0.0312,0.0307,0.028,0.036,0.036,0.036,0.0361,0,0,-0.0877,-0.0932,-0.0962,-0.1029,-0.1059,-0.1062,-0.1038,-0.0949,-0.0829,-0.0661,-0.0501,-0.0318,-0.0098,0.0048,0.0179,0.0282,0.0263,0.0283,0.0262,0.0182,0.0176,0.026,0.0211,0,0,0,0,0]}],[{"header":{"parameterUnit":"m.s-1","parameterCategory":2,"la1":30.2991,"la2":30.254,"lo1":-89.0895,"lo2":-89.0444,"dy":0.0017,"dx":0.0017,"nx":28,"ny":28,"refTime":"2024-02-07T03:00:00:Z","depth":"4","parameterNumber":2,"parameterNumberName":"U-component_of_CURRENTS"},"data":[0,0,0,0,0,0,0,0,0,0,0,0,0,0,0,0,0,0,0,0,0,0,0,0,0,0,0,0,0,0,0,0,0,0,0,0,0,0,0,0,0,0,0,0,0,0,0,0,0,0,0,0,0,0,0,0,0,0,-0.1293,-0.1293,0,-0.1324,-0.1324,-0.1324,-0.1358,-0.1359,-0.1359,-0.136,-0.1381,-0.1381,-0.1381,0,0,0,0,0,0,0,0,0,0,0,0,0,-0.1246,-0.1247,-0.1293,-0.1293,-0.1294,-0.1324,-0.1324,-0.1324,-0.1358,-0.1359,-0.1359,-0.136,-0.1381,-0.1381,-0.1381,0,0,0,0,0,0,0,0,0,0,0,0,0,-0.127,-0.1247,-0.1293,-0.1315,-0.1317,-0.1324,-0.1324,-0.1325,-0.1358,-0.1359,-0.136,-0.136,-0.1381,-0.1381,-0.1381,-0.1364,0,0,-0.1381,-0.1381,0,0,0,0,0,0,0,0,-0.1268,-0.1271,-0.1311,-0.1313,-0.1316,-0.1339,-0.1315,-0.1338,-0.1358,-0.1341,-0.136,-0.1361,-0.1366,-0.1367,-0.137,-0.1365,-0.1366,-0.1381,-0.1381,-0.1381,-0.1381,0,0,0,0,0,0,0,-0.1267,-0.127,-0.1304,-0.1312,-0.1315,-0.1317,-0.1322,-0.132,-0.1348,-0.1343,-0.1346,-0.135,-0.1367,-0.137,-0.1371,-0.1366,-0.1381,-0.1381,-0.1381,-0.1381,-0.1434,-0.1435,0,0,0,0,0,0,-0.1265,-0.1269,-0.1303,-0.1305,-0.1295,-0.1318,-0.1323,-0.133,-0.1348,-0.1352,-0.135,-0.1352,-0.1369,-0.1371,-0.1372,-0.1416,-0.1381,-0.1381,-0.1381,-0.1432,-0.1434,-0.1436,0,0,0,0,0,0,-0.1264,-0.1268,-0.1302,-0.1288,-0.1293,-0.1318,-0.1326,-0.133,-0.1359,-0.1353,-0.1357,-0.1377,-0.137,-0.1371,-0.1398,-0.1415,-0.1381,-0.1381,-0.1431,-0.1433,-0.1435,-0.1465,0,0,0,0,0,0,-0.1262,-0.1267,-0.1282,-0.1288,-0.1294,-0.1318,-0.1325,-0.133,-0.1359,-0.1363,-0.1377,-0.1378,-0.1371,-0.1399,-0.1399,-0.1414,-0.1381,-0.1429,-0.1432,-0.1434,-0.1462,-0.1467,-0.1472,0,0,0,0,0,-0.126,-0.1272,-0.1282,-0.1287,-0.131,-0.1319,-0.1322,-0.1342,-0.136,-0.1371,-0.1391,-0.1379,-0.1415,-0.14,-0.1399,-0.1415,-0.1428,-0.1431,-0.1434,-0.146,-0.1466,-0.1472,0,0,0,0,0,0,-0.126,-0.1276,-0.1288,-0.1305,-0.1318,-0.1325,-0.134,-0.1356,-0.138,-0.1394,-0.1393,-0.1396,-0.1424,-0.1421,-0.1404,-0.1441,-0.1421,-0.1424,-0.144,-0.1447,-0.1452,-0.1434,-0.1381,0,0,0,0,0,-0.1266,-0.1281,-0.1293,-0.131,-0.1318,-0.1335,-0.1347,-0.1362,-0.1379,-0.1392,-0.1404,-0.142,-0.1431,-0.1442,-0.1447,-0.1465,-0.1444,-0.1479,-0.1484,-0.1488,-0.1476,-0.1466,-0.1468,-0.1446,-0.1446,-0.1446,0,0,-0.1272,-0.1283,-0.1293,-0.1312,-0.1325,-0.1338,-0.1345,-0.1369,-0.1388,-0.1389,-0.1426,-0.1437,-0.1441,-0.1463,-0.1476,-0.1466,-0.1486,-0.1492,-0.1495,-0.148,-0.1469,-0.1471,-0.1473,-0.1448,-0.1447,-0.1447,0,0,-0.1278,-0.13,-0.1311,-0.1324,-0.1348,-0.1356,-0.1369,-0.1392,-0.1412,-0.1444,-0.1452,-0.1471,-0.1497,-0.1495,-0.1499,-0.1535,-0.1512,-0.1552,-0.1563,-0.1554,-0.1555,-0.1556,-0.1536,-0.1535,-0.1556,-0.1556,-0.1556,0,-0.1287,-0.1301,-0.1316,-0.1329,-0.1344,-0.1368,-0.1384,-0.1402,-0.1434,-0.145,-0.1463,-0.1502,-0.1504,-0.1521,-0.1536,-0.1543,-0.1536,-0.1536,-0.1558,-0.1558,-0.1558,-0.1538,-0.1536,-0.1558,-0.1558,-0.1558,-0.1557,0,-0.1292,-0.1315,-0.1323,-0.1347,-0.1365,-0.1384,-0.1408,-0.1436,-0.1468,-0.1483,-0.152,-0.1528,-0.1548,-0.1559,-0.1558,-0.1568,-0.1563,-0.1562,-0.1536,-0.1562,-0.154,-0.1537,-0.1561,-0.156,-0.1559,-0.1559,0,0,-0.1277,-0.1319,-0.1324,-0.1341,-0.138,-0.1391,-0.1428,-0.1457,-0.1482,-0.1518,-0.1542,-0.1565,-0.1575,-0.1579,-0.1585,-0.1578,-0.1572,-0.1576,-0.1575,-0.1544,-0.1552,-0.1453,-0.144,-0.1583,-0.1583,-0.1583,-0.1537,0,-0.1278,-0.1303,-0.1328,-0.136,-0.1374,-0.1413,-0.1442,-0.1476,-0.1508,-0.1536,-0.1552,-0.1577,-0.1582,-0.1598,-0.1593,-0.158,-0.1567,-0.1584,-0.1541,-0.1539,-0.1437,-0.1433,-0.1582,-0.1535,-0.1534,-0.1534,-0.1533,0,-0.1266,-0.1287,-0.1318,-0.1367,-0.1378,-0.1407,-0.1457,-0.1486,-0.1528,-0.1555,-0.1583,-0.1596,-0.1602,-0.16,-0.1579,-0.1597,-0.1573,-0.1556,-0.1554,-0.1443,-0.1434,-0.1504,-0.1528,-0.1528,-0.1529,-0.1529,-0.1529,0,-0.1228,-0.1277,-0.1305,-0.1321,-0.1379,-0.141,-0.1445,-0.1494,-0.1521,-0.1564,-0.1587,-0.1602,-0.1612,-0.1592,-0.1565,-0.1578,-0.1526,-0.1538,-0.1422,-0.1416,-0.1506,-0.1506,-0.1506,-0.1506,-0.1506,-0.1506,-0.1506,0,-0.1201,-0.1224,-0.1296,-0.1307,-0.1348,-0.1396,-0.1441,-0.1479,-0.1529,-0.1542,-0.1592,-0.1594,-0.1612,-0.1591,-0.1561,-0.1473,-0.1523,-0.1406,-0.139,-0.1522,-0.1524,-0.1504,-0.1504,-0.1504,-0.1505,-0.1505,-0.1505,0,-0.1147,-0.1194,-0.1232,-0.1305,-0.133,-0.136,-0.1439,-0.1457,-0.1522,-0.1538,-0.1553,-0.1592,-0.1556,-0.1549,-0.1506,-0.1454,-0.1387,-0.1343,-0.1473,-0.1469,-0.1285,-0.1288,-0.1205,-0.1201,-0.1197,-0.1194,-0.1192,0,-0.1117,-0.1132,-0.1221,-0.1241,-0.1279,-0.1334,-0.1361,-0.1442,-0.1453,-0.1513,-0.1498,-0.1506,-0.1509,-0.1367,-0.1378,-0.1301,-0.1286,-0.1251,-0.1271,-0.1257,-0.1251,-0.126,-0.1267,-0.1186,-0.1186,-0.1185,-0.1184,0,-0.1056,-0.1104,-0.1131,-0.1179,-0.1218,-0.1256,-0.1299,-0.1305,-0.1371,-0.1447,-0.1399,-0.1369,-0.1324,-0.1284,-0.1233,-0.1184,-0.1274,-0.1215,-0.1222,-0.1241,-0.1234,-0.1234,-0.1245,-0.1172,-0.1174,-0.1175,-0.1175,0,-0.101,-0.1017,-0.1059,-0.109,-0.114,-0.1145,-0.1191,-0.1191,-0.1219,-0.1285,-0.1261,-0.1265,-0.1303,-0.122,-0.117,-0.1114,-0.1099,-0.1066,-0.1081,-0.1095,-0.1078,-0.1055,-0.0906,0,0,0,0,0,-0.095,-0.0938,-0.096,-0.0981,-0.103,-0.1055,-0.1123,-0.1167,-0.1237,-0.1165,-0.1211,-0.1158,-0.1094,-0.1104,-0.1018,-0.1114,-0.1103,-0.101,-0.1075,-0.1106,-0.112,-0.111,0,0,0,0,0,0,-0.0901,-0.0915,-0.092,-0.0884,-0.0877,-0.091,-0.0952,-0.1004,-0.0975,-0.1052,-0.1021,-0.1077,-0.103,-0.1108,-0.0987,-0.0987,-0.1001,-0.1022,-0.1019,-0.1098,-0.1111,-0.1122,-0.1117,0,0,0,0,0]},{"header":{"parameterUnit":"m.s-1","parameterCategory":2,"la1":30.2991,"la2":30.254,"lo1":-89.0895,"lo2":-89.0444,"dy":0.0017,"dx":0.0017,"nx":28,"ny":28,"refTime":"2024-02-07T03:00:00:Z","depth":"4","parameterNumber":3,"parameterNumberName":"V-component_of_CURRENTS"},"data":[0,0,0,0,0,0,0,0,0,0,0,0,0,0,0,0,0,0,0,0,0,0,0,0,0,0,0,0,0,0,0,0,0,0,0,0,0,0,0,0,0,0,0,0,0,0,0,0,0,0,0,0,0,0,0,0,0,0,-0.0352,-0.0352,0,-0.0342,-0.0342,-0.0342,-0.0333,-0.0333,-0.0333,-0.0333,-0.0293,-0.0292,-0.0291,0,0,0,0,0,0,0,0,0,0,0,0,0,-0.0327,-0.0328,-0.0352,-0.0352,-0.0352,-0.0342,-0.0342,-0.0342,-0.0333,-0.0333,-0.0333,-0.0333,-0.0293,-0.0292,-0.0291,0,0,0,0,0,0,0,0,0,0,0,0,0,-0.0329,-0.0328,-0.0352,-0.0347,-0.0346,-0.0342,-0.0342,-0.0342,-0.0333,-0.0333,-0.0333,-0.0333,-0.0293,-0.0292,-0.029,-0.0283,0,0,-0.0286,-0.0285,0,0,0,0,0,0,0,0,-0.0329,-0.033,-0.0348,-0.0347,-0.0347,-0.0339,-0.0318,-0.0321,-0.0333,-0.0337,-0.0333,-0.0333,-0.0306,-0.0303,-0.0301,-0.0281,-0.0279,-0.0286,-0.0285,-0.0284,-0.0284,0,0,0,0,0,0,0,-0.0329,-0.033,-0.0348,-0.0348,-0.0347,-0.0332,-0.0333,-0.0319,-0.0321,-0.0337,-0.0337,-0.0336,-0.0305,-0.0303,-0.03,-0.0279,-0.0286,-0.0284,-0.0283,-0.0283,-0.0226,-0.0225,0,0,0,0,0,0,-0.0333,-0.033,-0.0348,-0.0347,-0.0338,-0.0333,-0.0334,-0.0341,-0.0322,-0.0319,-0.0336,-0.0336,-0.0306,-0.0302,-0.0299,-0.0282,-0.0284,-0.0283,-0.0282,-0.0226,-0.0225,-0.0225,0,0,0,0,0,0,-0.0333,-0.0335,-0.0348,-0.0338,-0.0339,-0.0334,-0.0342,-0.0341,-0.0344,-0.0322,-0.0319,-0.0341,-0.0305,-0.0301,-0.0284,-0.0281,-0.0282,-0.0281,-0.0227,-0.0226,-0.0225,-0.0253,0,0,0,0,0,0,-0.0333,-0.0336,-0.0345,-0.0339,-0.034,-0.0352,-0.0342,-0.0341,-0.0344,-0.0343,-0.0325,-0.0321,-0.0305,-0.0286,-0.0282,-0.0279,-0.0279,-0.0228,-0.0227,-0.0225,-0.0252,-0.0253,-0.0253,0,0,0,0,0,-0.0332,-0.0348,-0.0346,-0.0348,-0.0353,-0.0352,-0.0351,-0.0346,-0.0344,-0.0348,-0.0329,-0.0322,-0.0276,-0.0285,-0.028,-0.0276,-0.0228,-0.0227,-0.0226,-0.0252,-0.0253,-0.0253,0,0,0,0,0,0,-0.0343,-0.0348,-0.0346,-0.0363,-0.036,-0.0351,-0.0358,-0.0352,-0.0341,-0.0342,-0.0319,-0.0313,-0.0297,-0.028,-0.029,-0.0254,-0.0249,-0.0247,-0.0271,-0.0271,-0.0271,-0.028,-0.0278,0,0,0,0,0,-0.035,-0.0364,-0.036,-0.0374,-0.0375,-0.0367,-0.0368,-0.0364,-0.0352,-0.0349,-0.0333,-0.031,-0.0286,-0.0275,-0.0256,-0.0239,-0.0217,-0.023,-0.0231,-0.0231,-0.0234,-0.0194,-0.0191,-0.022,-0.022,-0.022,0,0,-0.0359,-0.0363,-0.0371,-0.0377,-0.0376,-0.0379,-0.0368,-0.0373,-0.037,-0.0345,-0.0339,-0.0316,-0.0283,-0.0263,-0.0253,-0.0249,-0.021,-0.0229,-0.023,-0.0232,-0.0192,-0.0189,-0.0187,-0.0219,-0.022,-0.022,0,0,-0.0381,-0.0387,-0.0404,-0.0403,-0.0404,-0.0395,-0.0399,-0.0392,-0.0385,-0.0374,-0.035,-0.0322,-0.0297,-0.0266,-0.0247,-0.0235,-0.0216,-0.023,-0.0238,-0.0199,-0.0197,-0.0194,-0.0162,-0.0157,-0.0228,-0.0228,-0.0228,0,-0.039,-0.0411,-0.0408,-0.0418,-0.0419,-0.0404,-0.0415,-0.0404,-0.039,-0.0379,-0.0376,-0.032,-0.0295,-0.0254,-0.0249,-0.0236,-0.0217,-0.0243,-0.0201,-0.0198,-0.0195,-0.0163,-0.0156,-0.0229,-0.0229,-0.0229,-0.0228,0,-0.0419,-0.0435,-0.0444,-0.0452,-0.045,-0.0459,-0.0441,-0.0435,-0.0423,-0.0405,-0.0373,-0.0333,-0.0297,-0.0281,-0.0263,-0.0226,-0.022,-0.021,-0.0205,-0.0194,-0.016,-0.0153,-0.023,-0.023,-0.023,-0.0229,0,0,-0.0442,-0.0462,-0.0467,-0.0476,-0.047,-0.0472,-0.0463,-0.0447,-0.0438,-0.0412,-0.0391,-0.0342,-0.032,-0.0296,-0.0263,-0.0228,-0.0188,-0.0215,-0.0213,-0.0192,-0.0109,-0.0112,-0.0105,-0.0176,-0.0175,-0.0174,-0.0095,0,-0.0465,-0.0498,-0.0496,-0.0516,-0.0529,-0.0508,-0.0501,-0.0481,-0.0454,-0.0428,-0.0376,-0.0345,-0.0324,-0.0305,-0.0266,-0.0207,-0.017,-0.021,-0.0115,-0.0113,-0.0123,-0.0097,-0.017,-0.0089,-0.0088,-0.0087,-0.0086,0,-0.0491,-0.051,-0.0543,-0.0551,-0.0554,-0.0561,-0.0542,-0.0531,-0.0483,-0.046,-0.0415,-0.0375,-0.0313,-0.0299,-0.0197,-0.0227,-0.0173,-0.0128,-0.0123,-0.0113,-0.0102,-0.01,-0.0073,-0.0074,-0.0075,-0.0075,-0.0076,0,-0.051,-0.0539,-0.0569,-0.0573,-0.0579,-0.0585,-0.0582,-0.0547,-0.0533,-0.0479,-0.0458,-0.0383,-0.0339,-0.0268,-0.0175,-0.0186,-0.0063,-0.0062,-0.0012,-0.0012,-0.0023,-0.0026,0.0011,0.001,0.001,0.001,0.001,0,-0.053,-0.0553,-0.0587,-0.0601,-0.063,-0.0619,-0.0627,-0.0607,-0.0569,-0.0546,-0.0482,-0.0438,-0.033,-0.0247,-0.0174,-0.007,-0.0059,-0.0008,0.0012,-0.0036,-0.0041,-0.0018,-0.0022,0.0013,0.0012,0.0012,0.0011,0,-0.0543,-0.0566,-0.0604,-0.0632,-0.0645,-0.0665,-0.0669,-0.0664,-0.0627,-0.0591,-0.0574,-0.0469,-0.0357,-0.0249,-0.0113,-0.0064,0.0032,0.0067,0.0009,0.0024,0.0056,0.005,0.0127,0.0128,0.0129,0.0129,0.0129,0,-0.055,-0.0576,-0.0635,-0.0664,-0.0683,-0.071,-0.0724,-0.07,-0.0682,-0.0605,-0.0582,-0.0468,-0.039,-0.0193,-0.0092,0.0053,0.0068,0.0111,0.0081,0.0059,0.007,0.0063,0.0056,0.013,0.013,0.0131,0.0131,0,-0.0563,-0.0595,-0.0628,-0.0692,-0.0728,-0.0755,-0.0765,-0.0751,-0.0705,-0.0679,-0.0565,-0.0457,-0.0324,-0.0181,-0.0063,0.0034,0.0077,0.0116,0.0116,0.0089,0.0063,0.0072,0.0065,0.0133,0.0132,0.0132,0.0132,0,-0.0574,-0.0606,-0.0659,-0.0707,-0.0759,-0.0777,-0.0781,-0.0742,-0.0715,-0.062,-0.0583,-0.044,-0.035,-0.0189,-0.0085,0.0015,0.0032,0.0048,0.0051,0.005,-0.0003,-0.0049,0.001,0,0,0,0,0,-0.0575,-0.0611,-0.0664,-0.0718,-0.0768,-0.0791,-0.0795,-0.0782,-0.0737,-0.0658,-0.0613,-0.0486,-0.0303,-0.022,-0.0117,-0.0096,0.0031,0.0024,0.0046,0.0143,0.0141,0.0091,0,0,0,0,0,0,-0.0578,-0.0631,-0.066,-0.0715,-0.0748,-0.0791,-0.0792,-0.0764,-0.0702,-0.0644,-0.0538,-0.048,-0.0298,-0.036,-0.012,-0.009,-0.0067,0.0111,0.0113,0.0144,0.0142,0.014,0.0089,0,0,0,0,0]}]]